Regional Weather Roundup
Issued by NWS Goodland, KS

Home | Current Version | Previous Version | Graphics & Text | Print | Product List | Glossary On
Versions: 1 2 3 4 5 6 7 8 9 10 11 12 13 14 15 16 17 18 19 20 21 22 23 24 25 26 27 28 29 30 31 32 33 34 35 36 37 38 39 40 41 42 43 44 45 46 47 48 49 50
000
ASUS43 KGLD 220659
RWRGLD

GOODLAND FORECAST AREA HOURLY WEATHER ROUNDUP
NATIONAL WEATHER SERVICE GOODLAND KS
100 AM MDT FRI AUG 22 2014

...OFFICIAL OBSERVATIONS...

CITY           SKY/WX    TMP DP  RH WIND       PRES   REMARKS
GOODLAND KS    CLEAR     64  55  72 NE5       30.02S
HILL CITY KS   MOCLDY    73  67  81 N6        29.90F
IMPERIAL NEB   PTCLDY    71  64  78 E3        30.00S
MCCOOK NEB     CLEAR     71  67  87 NE5       29.95F
AKRON CO       LGT RAIN  66  57  72 NW14      30.11R
BURLINGTON CO  PTCLDY    64  50  60 CALM      30.05S
LIMON CO       PTCLDY    62  51  67 NW5       30.13F
$$

...UNOFFICIAL OBSERVATIONS...

CITY           SKY/WX    TMP DP  RH WIND       PRES   REMARKS
COLBY KS       CLEAR     68  68 100 N5        29.98F
LENORA KS        N/A     70  32  24 CALM        N/A
NORTON KS      CLEAR     73  68  83 CALM      29.93R
SHARON SPRINGS   N/A     72  56  56 E6          N/A
WAKEENEY KS      N/A     73  64  73 MISG        N/A
KIT CARSON CO    N/A     70  53  54 MISG        N/A
YUMA CO          N/A     65  59  80 CALM        N/A
$$


USA.gov is the U.S. government's official web portal to all federal, state and local government web resources and services.